Location: Unspecified
(0.0000°N, 0.0000°E)
Time: 09:02:39
(UTC+00:00)

Vanguard 2 - Pass Details

Date: 25 October 2021
Orbit: 554 x 2936 km, 32.9° (Epoch: 06 December)

Event Time Altitude Azimuth Distance (km) Brightness Sun altitude
Rises 01:39:05 0° 284° (WNW) 6,391 - -59.0°
Reaches altitude 10° 01:47:47 10° 310° (NW) 4,823 - -57.0°
Maximum altitude 01:52:21 12° 330° (NNW) 4,264 - -56.0°
Drops below altitude 10° 01:56:20 10° 352° (N) 4,081 - -55.0°
Sets 02:02:07 0° 21° (NNE) 4,473 - -53.7°
